H1 CPF 2 NER 2021 12 31 9 365 01 glonass106 H2 0705201 9106 32275 2021 12 31 0 0 0 2022 1 3 23 45 0 900 1 1 0 0 0 1 H9 10 0 59579 0.00000 0 -10350768.115 398562.888 -23303054.686 10 0 59579 900.00000 0 -10425458.064 -2473207.929 -23141854.929 10 0 59579 1800.00000 0 -10715584.541 -5283514.944 -22530932.144 10 0 59579 2700.00000 0 -11204093.465 -7962571.355 -21482178.855 10 0 59579 3600.00000 0 -11862081.273 -10445605.190 -20015994.279 10 0 59579 4500.00000 0 -12650054.247 -12675315.434 -18160886.987 10 0 59579 5400.00000 0 -13519650.898 -14604018.969 -15952920.161 10 0 59579 6300.00000 0 -14415754.809 -16195399.786 -13435010.034 10 0 59579 7200.00000 0 -15278908.838 -17425788.368 -10656091.022 10 0 59579 8100.00000 0 -16047928.769 -18284918.867 -7670163.626 10 0 59579 9000.00000 0 -16662606.007 -18776133.519 -4535243.580 10 0 59579 9900.00000 0 -17066385.008 -18916026.799 -1312232.830 10 0 59579 10800.00000 0 -17208902.137 -18733545.497 1936265.496 10 0 59579 11700.00000 0 -17048278.392 -18268583.671 5147164.812 10 0 59579 12600.00000 0 -16553068.846 -17570132.645 8258121.385 10 0 59579 13500.00000 0 -15703786.106 -16694064.945 11208745.141 10 0 59579 14400.00000 0 -14493933.074 -15700646.256 13941771.211 10 0 59579 15300.00000 0 -12930501.008 -14651880.787 16404169.365 10 0 59579 16200.00000 0 -11033911.321 -13608802.150 18548169.939 10 0 59579 17100.00000 0 -8837402.814 -12628823.849 20332186.703 10 0 59579 18000.00000 0 -6385889.230 -11763260.703 21721619.163 10 0 59579 18900.00000 0 -3734333.950 -11055125.056 22689519.419 10 0 59579 19800.00000 0 -945708.538 -10537289.927 23217111.223 10 0 59579 20700.00000 0 1911380.841 -10231095.767 23294151.739 10 0 59579 21600.00000 0 4765301.655 -10145458.873 22919129.433 10 0 59579 22500.00000 0 7544130.692 -10276518.589 22099294.428 10 0 59579 23400.00000 0 10178404.672 -10607837.986 20850520.709 10 0 59579 24300.00000 0 12603772.646 -11111149.615 19197002.553 10 0 59579 25200.00000 0 14763440.957 -11747615.276 17170790.516 10 0 59579 26100.00000 0 16610309.837 -12469547.135 14811175.347 10 0 59579 27000.00000 0 18108713.368 -13222518.173 12163931.050 10 0 59579 27900.00000 0 19235690.825 -13947773.391 9280431.025 10 0 59579 28800.00000 0 19981736.645 -14584840.349 6216653.982 10 0 59579 29700.00000 0 20350998.100 -15074228.851 3032098.510 10 0 59579 30600.00000 0 20360912.718 -15360105.585 -211372.774 10 0 59579 31500.00000 0 20041301.062 -15392830.196 -3450736.802 10 0 59579 32400.00000 0 19432953.500 -15131244.920 -6623037.713 10 0 59579 33300.00000 0 18585770.924 -14544620.075 -9666614.229 10 0 59579 34200.00000 0 17556538.338 -13614172.168 -12522302.224 10 0 59579 35100.00000 0 16406425.707 -12334089.394 -15134588.610 10 0 59579 36000.00000 0 15198321.991 -10712020.040 -17452693.619 10 0 59579 36900.00000 0 13994115.196 -8769002.101 -19431560.051 10 0 59579 37800.00000 0 12852033.413 -6538835.898 -21032730.156 10 0 59579 38700.00000 0 11824159.015 -4066924.913 -22225093.156 10 0 59579 39600.00000 0 10954220.669 -1408632.446 -22985489.008 10 0 59579 40500.00000 0 10275755.907 1372778.140 -23299157.035 10 0 59579 41400.00000 0 9810721.200 4208534.513 -23160021.008 10 0 59579 42300.00000 0 9568607.570 7026978.826 -22570805.443 10 0 59579 43200.00000 0 9546098.433 9756315.048 -21542981.086 10 0 59579 44100.00000 0 9727283.537 12327366.551 -20096540.732 10 0 59579 45000.00000 0 10084419.525 14676229.781 -18259609.740 10 0 59579 45900.00000 0 10579204.645 16746714.248 -16067898.680 10 0 59579 46800.00000 0 11164513.522 18492467.893 -13564008.569 10 0 59579 47700.00000 0 11786518.492 19878699.871 -10796602.075 10 0 59579 48600.00000 0 12387107.681 20883429.615 -7819456.662 10 0 59579 49500.00000 0 12906497.399 21498210.853 -4690418.031 10 0 59579 50400.00000 0 13285928.152 21728301.125 -1470274.407 10 0 59579 51300.00000 0 13470329.998 21592270.707 1778426.292 10 0 59579 52200.00000 0 13410844.155 21121068.371 4992593.102 10 0 59579 53100.00000 0 13067093.917 20356584.214 8109818.409 10 0 59579 54000.00000 0 12409108.486 19349770.907 11069590.000 10 0 59579 54900.00000 0 11418817.986 18158403.164 13814465.031 10 0 59579 55800.00000 0 10091056.111 16844570.257 16291182.950 10 0 59579 56700.00000 0 8434027.526 15472007.423 18451695.951 10 0 59579 57600.00000 0 6469219.597 14103378.380 20254097.291 10 0 59579 58500.00000 0 4230761.341 12797623.025 21663429.841 10 0 59579 59400.00000 0 1764255.401 11607481.242 22652359.863 10 0 59579 60300.00000 0 -874869.321 10577296.162 23201703.539 10 0 59579 61200.00000 0 -3623416.777 9741188.351 23300796.575 10 0 59579 62100.00000 0 -6412810.197 9121676.760 22947700.174 10 0 59579 63000.00000 0 -9171707.881 8728803.580 22149239.588 10 0 59579 63900.00000 0 -11828740.727 8559799.219 20920874.460 10 0 59579 64800.00000 0 -14315258.939 8599301.049 19286403.196 10 0 59579 65700.00000 0 -16567974.710 8820116.539 17277506.578 10 0 59579 66600.00000 0 -18531391.679 9184498.691 14933138.833 10 0 59579 67500.00000 0 -20159920.673 9645880.167 12298777.237 10 0 59579 68400.00000 0 -21419593.947 10150993.144 9425544.088 10 0 59579 69300.00000 0 -22289306.575 10642285.627 6369217.592 10 0 59579 70200.00000 0 -22761533.312 11060532.092 3189150.432 10 0 59579 71100.00000 0 -22842491.034 11347527.982 -52883.113 10 0 59579 72000.00000 0 -22551740.091 11448753.661 -3293888.932 10 0 59579 72900.00000 0 -21921241.557 11315894.536 -6470880.077 10 0 59579 73800.00000 0 -20993910.309 10909109.854 -9522104.675 10 0 59579 74700.00000 0 -19821725.201 10198953.271 -12388250.216 10 0 59579 75600.00000 0 -18463476.334 9167862.892 -15013600.308 10 0 59579 76500.00000 0 -16982244.679 7811156.655 -17347120.921 10 0 59579 77400.00000 0 -15442720.587 6137489.914 -19343454.625 10 0 59579 78300.00000 0 -13908474.272 4168754.715 -20963803.370 10 0 59579 79200.00000 0 -12439293.222 1939423.781 -22176682.715 10 0 59579 80100.00000 0 -11088698.399 -504634.350 -22958532.952 10 0 59579 81000.00000 0 -9901743.366 -3107820.537 -23294175.600 10 0 59579 81900.00000 0 -8913188.267 -5806882.004 -23177106.691 10 0 59579 82800.00000 0 -8146124.816 -8533315.189 -22609621.437 10 0 59579 83700.00000 0 -7611109.244 -11215995.146 -21602768.091 10 0 59579 84600.00000 0 -7305838.853 -13783922.706 -20176131.979 10 0 59579 85500.00000 0 -7215384.962 -16168975.499 -18357453.916 10 0 59580 0.00000 0 -7312971.631 -18308548.721 -16182090.507 10 0 59580 900.00000 0 -7561266.681 -20147977.232 -13692325.421 10 0 59580 1800.00000 0 -7914129.809 -21642635.583 -10936547.894 10 0 59580 2700.00000 0 -8318743.545 -22759632.747 -7968310.398 10 0 59580 3600.00000 0 -8718036.460 -23479028.320 -4845286.602 10 0 59580 4500.00000 0 -9053295.700 -23794521.130 -1628148.949 10 0 59580 5400.00000 0 -9266857.902 -23713581.927 1620611.961 10 0 59580 6300.00000 0 -9304764.186 -23257025.372 4837902.978 10 0 59580 7200.00000 0 -9119266.478 -22458040.079 7961254.887 10 0 59580 8100.00000 0 -8671078.738 -21360718.250 10930035.726 10 0 59580 9000.00000 0 -7931277.442 -20018147.377 13686627.122 10 0 59580 9900.00000 0 -6882770.631 -18490144.759 16177540.661 10 0 59580 10800.00000 0 -5521272.972 -16840730.338 18354452.796 10 0 59580 11700.00000 0 -3855745.075 -15135444.053 20175138.517 10 0 59580 12600.00000 0 -1908277.829 -13438620.131 21604286.080 10 0 59580 13500.00000 0 286574.404 -11810732.181 22614177.642 10 0 59580 14400.00000 0 2682984.954 -10305919.675 23185223.199 10 0 59580 15300.00000 0 5225521.816 -8969798.629 23306338.010 10 0 59580 16200.00000 0 7851222.223 -7837647.252 22975156.671 10 0 59580 17100.00000 0 10491989.780 -6933041.571 22198079.855 10 0 59580 18000.00000 0 13077215.603 -6266997.371 20990152.811 10 0 59580 18900.00000 0 15536515.635 -5837653.638 19374777.702 10 0 59580 19800.00000 0 17802471.277 -5630510.214 17383264.839 10 0 59580 20700.00000 0 19813260.006 -5619209.278 15054230.893 10 0 59580 21600.00000 0 21515066.985 -5766827.526 12432855.042 10 0 59580 22500.00000 0 22864177.461 -6027624.459 9570006.736 10 0 59580 23400.00000 0 23828662.671 -6349172.956 6521261.548 10 0 59580 24300.00000 0 24389588.798 -6674782.001 3345823.757 10 0 59580 25200.00000 0 24541698.295 -6946108.915 105376.468 10 0 59580 26100.00000 0 24293534.886 -7105850.195 -3137118.254 10 0 59580 27000.00000 0 23667007.000 -7100396.525 -6318645.610 10 0 59580 27900.00000 0 22696408.005 -6882338.785 -9377366.401 10 0 59580 28800.00000 0 21426934.557 -6412718.151 -12253822.929 10 0 59580 29700.00000 0 19912765.608 -5662924.046 -14892098.511 10 0 59580 30600.00000 0 18214783.093 -4616158.599 -17240907.638 10 0 59580 31500.00000 0 16398030.408 -3268404.661 -19254595.138 10 0 59580 32400.00000 0 14529015.673 -1628855.319 -20894024.832 10 0 59580 33300.00000 0 12672973.090 280214.340 -22127340.442 10 0 59580 34200.00000 0 10891197.308 2424128.998 -22930584.053 10 0 59580 35100.00000 0 9238562.306 4757020.954 -23288160.448 10 0 59580 36000.00000 0 7761328.317 7223514.554 -23193138.584 10 0 59580 36900.00000 0 6495328.091 9760817.722 -22647384.625 10 0 59580 37800.00000 0 5464607.674 12301134.137 -21661524.184 10 0 59580 38700.00000 0 4680577.672 14774296.201 -20254734.586 10 0 59580 39600.00000 0 4141709.659 17110509.568 -18454371.198 10 0 59580 40500.00000 0 3833789.339 19243095.322 -16295434.999 10 0 59580 41400.00000 0 3730714.775 21111115.897 -13819891.513 10 0 59580 42300.00000 0 3795805.110 22661775.385 -11075854.284 10 0 59580 43200.00000 0 3983563.639 23852494.386 -8116648.585 10 0 59580 44100.00000 0 4241820.033 24652572.920 -4999773.565 10 0 59580 45000.00000 0 4514160.417 25044372.179 -1785783.158 10 0 59580 45900.00000 0 4742541.909 25023966.035 1462892.281 10 0 59580 46800.00000 0 4869980.403 24601235.511 4683160.442 10 0 59580 47700.00000 0 4843197.325 23799402.768 7812493.586 10 0 59580 48600.00000 0 4615112.937 22654024.792 10790143.025 10 0 59580 49500.00000 0 4147080.228 21211489.541 13558317.771 10 0 59580 50400.00000 0 3410764.616 19527078.139 16063304.307 10 0 59580 51300.00000 0 2389589.610 17662674.725 18256505.896 10 0 59580 52200.00000 0 1079686.886 15684220.053 20095381.579 10 0 59580 53100.00000 0 -509689.814 13659015.419 21544267.048 10 0 59580 54000.00000 0 -2356305.260 11652989.358 22575062.088 10 0 59580 54900.00000 0 -4425632.903 9728040.814 23167771.891 10 0 59580 55800.00000 0 -6672066.860 7939569.043 23310892.263 10 0 59580 56700.00000 0 -9040606.404 6334292.502 23001631.721 10 0 59580 57600.00000 0 -11468943.981 4948446.769 22245966.394 10 0 59580 58500.00000 0 -13889871.005 3806435.848 21058526.647 10 0 59580 59400.00000 0 -16233902.410 2919992.227 19462317.369 10 0 59580 60300.00000 0 -18432011.730 2287879.999 17488276.851 10 0 59580 61200.00000 0 -20418363.494 1896152.768 15174682.185 10 0 59580 62100.00000 0 -22132929.612 1718954.941 12566412.015 10 0 59580 63000.00000 0 -23523880.908 1719832.212 9714080.204 10 0 59580 63900.00000 0 -24549653.872 1853495.727 6673056.721 10 0 59580 64800.00000 0 -25180606.107 2067965.118 3502394.364 10 0 59580 65700.00000 0 -25400190.845 2306999.534 263681.921 10 0 59580 66600.00000 0 -25205600.965 2512713.436 -2980153.716 10 0 59580 67500.00000 0 -24607855.161 2628265.875 -6166072.995 10 0 59580 68400.00000 0 -23631322.399 2600508.727 -9232152.425 10 0 59580 69300.00000 0 -22312704.471 2382480.961 -12118792.046 10 0 59580 70200.00000 0 -20699519.374 1935642.461 -14769877.673 10 0 59580 71100.00000 0 -18848149.235 1231751.887 -17133874.869 10 0 59580 72000.00000 0 -16821534.883 254308.222 -19164832.952 10 0 59580 72900.00000 0 -14686613.884 -1000505.943 -20823279.439 10 0 59580 73800.00000 0 -12511609.466 -2523420.263 -22076987.536 10 0 59580 74700.00000 0 -10363283.877 -4292229.689 -22901601.892 10 0 59580 75600.00000 0 -8304270.873 -6272499.407 -23281110.761 10 0 59580 76500.00000 0 -6390598.487 -8418793.168 -23208155.688 10 0 59580 77400.00000 0 -4669505.113 -10676374.487 -22684172.946 10 0 59580 78300.00000 0 -3177639.360 -12983310.476 -21719364.237 10 0 59580 79200.00000 0 -1939717.999 -15272891.171 -20332497.256 10 0 59580 80100.00000 0 -967697.100 -17476263.877 -18550540.027 10 0 59580 81000.00000 0 -260489.849 -19525173.029 -16408136.009 10 0 59580 81900.00000 0 195758.382 -21354691.522 -13946929.978 10 0 59580 82800.00000 0 426850.473 -22905829.548 -11214757.693 10 0 59580 83700.00000 0 469209.211 -24127912.054 -8264714.970 10 0 59580 84600.00000 0 368097.285 -24980625.469 -5154124.206 10 0 59580 85500.00000 0 175461.716 -25435648.049 -1943418.662 10 0 59581 0.00000 0 -52505.253 -25477795.719 1305033.362 10 0 59581 900.00000 0 -257985.008 -25105635.496 4528143.054 10 0 59581 1800.00000 0 -384219.408 -24331541.081 7663325.885 10 0 59581 2700.00000 0 -378151.777 -23181188.669 10649718.460 10 0 59581 3600.00000 0 -192909.565 -21692514.335 13429359.179 10 0 59581 4500.00000 0 209976.564 -19914177.102 15948311.371 10 0 59581 5400.00000 0 858711.339 -17903592.307 18157706.964 10 0 59581 6300.00000 0 1769810.149 -15724617.638 20014690.757 10 0 59581 7200.00000 0 2947171.456 -13444988.537 21483247.367 10 0 59581 8100.00000 0 4381686.016 -11133609.787 22534895.448 10 0 59581 9000.00000 0 6051400.134 -8857815.726 23149236.328 10 0 59581 9900.00000 0 7922227.045 -6680712.707 23314346.979 10 0 59581 10800.00000 0 9949177.783 -4658713.597 23027010.149 10 0 59581 11700.00000 0 12078061.356 -2839366.048 22292777.436 10 0 59581 12600.00000 0 14247584.384 -1259564.074 21125864.054 10 0 59581 13500.00000 0 16391763.870 55783.617 19548877.094 10 0 59581 14400.00000 0 18442553.475 1094573.893 17592382.056 10 0 59581 15300.00000 0 20332574.531 1857784.698 15294315.441 10 0 59581 16200.00000 0 21997838.422 2359195.044 12699254.093 10 0 59581 17100.00000 0 23380346.890 2624561.958 9857554.744 10 0 59581 18000.00000 0 24430461.546 2690289.555 6824379.938 10 0 59581 18900.00000 0 25108943.184 2601646.850 3658628.855 10 0 59581 19800.00000 0 25388575.044 2410610.016 421793.565 10 0 59581 20700.00000 0 25255301.406 2173420.770 -2823236.854 10 0 59581 21600.00000 0 24708833.170 1947964.745 -6013400.899 10 0 59581 22500.00000 0 23762694.460 1791081.450 -9086693.655 10 0 59581 23400.00000 0 22443707.821 1755920.446 -11983375.743 10 0 59581 24300.00000 0 20790939.311 1889456.439 -14647138.210 10 0 59581 25200.00000 0 18854147.490 2230269.308 -17026200.246 10 0 59581 26100.00000 0 16691801.275 2806683.821 -19074318.007 10 0 59581 27000.00000 0 14368749.637 3635348.522 -20751684.803 10 0 59581 27900.00000 0 11953640.581 4720314.708 -22025705.174 10 0 59581 28800.00000 0 9516197.310 6052655.201 -22871627.904 10 0 59581 29700.00000 0 7124465.140 7610639.912 -23273025.984 10 0 59581 30600.00000 0 4842143.704 9360461.762 -23222114.460 10 0 59581 31500.00000 0 2726115.331 11257483.344 -22719900.249 10 0 59581 32400.00000 0 824271.963 13247952.952 -21776161.252 10 0 59581 33300.00000 0 -826269.619 15271118.843 -20409255.210 10 0 59581 34200.00000 0 -2200490.736 17261653.846 -18645762.050 10 0 59581 35100.00000 0 -3286277.852 19152289.350 -16519966.548 10 0 59581 36000.00000 0 -4084681.271 20876548.830 -14073191.187 10 0 59581 36900.00000 0 -4609615.927 22371466.592 -11352992.059 10 0 59581 37800.00000 0 -4887018.245 23580178.036 -8412233.332 10 0 59581 38700.00000 0 -4953495.876 24454272.831 -5308058.221 10 0 59581 39600.00000 0 -4854528.380 24955812.275 -2100776.665 10 0 59581 40500.00000 0 -4642295.961 25058926.140 1147308.476 10 0 59581 41400.00000 0 -4373228.944 24750921.949 4373113.609 10 0 59581 42300.00000 0 -4105382.399 24032860.097 7514000.945 10 0 59581 43200.00000 0 -3895747.659 22919570.778 10508995.312 10 0 59581 44100.00000 0 -3797614.920 21439112.036 13299967.351 10 0 59581 45000.00000 0 -3858098.833 19631691.786 15832759.976 10 0 59581 45900.00000 0 -4115931.927 17548098.989 18058236.372 10 0 59581 46800.00000 0 -4599619.258 15247709.520 19933229.488 10 0 59581 47700.00000 0 -5326032.357 12796149.899 21421375.032 10 0 59581 48600.00000 0 -6299502.041 10262716.025 22493812.407 10 0 59581 49500.00000 0 -7511448.759 7717653.910 23129740.636 10 0 59581 50400.00000 0 -8940566.631 5229414.986 23316819.027 10 0 59581 51300.00000 0 -10553554.339 2861999.334 23051405.293 10 0 59581 52200.00000 0 -12306363.295 672496.283 22338626.735 10 0 59581 53100.00000 0 -14145911.915 -1291076.250 21192283.113 10 0 59581 54000.00000 0 -16012195.454 -2991544.873 19634582.874 10 0 59581 54900.00000 0 -17840704.293 -4403893.503 17695717.331 10 0 59581 55800.00000 0 -19565050.387 -5516061.946 15413280.492 10 0 59581 56700.00000 0 -21119692.746 -6329197.875 12831545.051 10 0 59581 57600.00000 0 -22442648.267 -6857352.478 10000607.890 10 0 59581 58500.00000 0 -23478074.424 -7126633.225 6975421.132 10 0 59581 59400.00000 0 -24178615.388 -7173850.094 3814727.167 10 0 59581 60300.00000 0 -24507412.676 -7044712.899 579918.077 10 0 59581 61200.00000 0 -24439695.273 -6791656.366 -2666158.191 10 0 59581 62100.00000 0 -23963881.710 -6471385.496 -5860421.482 10 0 59581 63000.00000 0 -23082146.979 -6142245.690 -8940788.716 10 0 59581 63900.00000 0 -21810429.770 -5861529.555 -11847384.269 10 0 59581 64800.00000 0 -20177879.039 -5682835.133 -14523707.442 10 0 59581 65700.00000 0 -18225762.612 -5653588.042 -16917733.864 10 0 59581 66600.00000 0 -16005883.166 -5812833.049 -18982929.023 10 0 59581 67500.00000 0 -13578567.617 -6189389.126 -20679154.090 10 0 59581 68400.00000 0 -11010313.736 -6800446.606 -21973446.474 10 0 59581 69300.00000 0 -8371192.092 -7650666.265 -22840660.023 10 0 59581 70200.00000 0 -5732111.498 -8731819.018 -23263952.740 10 0 59581 71100.00000 0 -3162061.497 -10022982.067 -23235112.803 10 0 59581 72000.00000 0 -725446.454 -11491283.960 -22754716.813 10 0 59581 72900.00000 0 1520378.410 -13093167.937 -21832117.379 10 0 59581 73800.00000 0 3527267.200 -14776121.217 -20485260.374 10 0 59581 74700.00000 0 5258050.532 -16480798.195 -18740335.373 10 0 59581 75600.00000 0 6687837.194 -18143448.977 -16631265.967 10 0 59581 76500.00000 0 7804797.092 -19698551.752 -14199049.671 10 0 59581 77400.00000 0 8610394.020 -21081538.707 -11490960.138 10 0 59581 78300.00000 0 9119059.911 -22231501.164 -8559627.079 10 0 59581 79200.00000 0 9357325.646 -23093760.302 -5462011.733 10 0 59581 80100.00000 0 9362446.325 -23622195.301 -2258297.984 10 0 59581 81000.00000 0 9180580.206 -23781230.886 989279.090 10 0 59581 81900.00000 0 8864599.321 -23547400.533 4217644.198 10 0 59581 82800.00000 0 8471625.164 -22910419.396 7364108.343 10 0 59581 83700.00000 0 8060394.452 -21873721.754 10367586.732 10 0 59581 84600.00000 0 7688566.880 -20454440.178 13169784.215 10 0 59581 85500.00000 0 7410089.068 -18682827.216 15716325.034 10 0 59582 0.00000 0 7272726.344 -16601143.797 17957804.933 10 0 59582 900.00000 0 7315866.613 -14262059.438 19850746.639 10 0 59582 1800.00000 0 7568689.170 -11726633.652 21358437.648 10 0 59582 2700.00000 0 8048775.439 -9061958.545 22451638.710 10 0 59582 3600.00000 0 8761220.482 -6338562.885 23109146.806 10 0 59582 4500.00000 0 9698282.848 -3627683.902 23318203.526 10 0 59582 5400.00000 0 10839587.949 -998519.485 23074741.179 10 0 59582 6300.00000 0 12152877.155 1484426.076 22383462.129 10 0 59582 7200.00000 0 13595271.993 3763793.474 21257749.811 10 0 59582 8100.00000 0 15115001.443 5791516.129 19719412.946 10 0 59582 9000.00000 0 16653520.905 7530576.002 17798267.415 10 0 59582 9900.00000 0 18147934.922 8956295.254 15531563.322 10 0 59582 10800.00000 0 19533622.819 10057110.855 12963267.663 10 0 59582 11700.00000 0 20746957.635 10834800.580 10143215.765 10 0 59582 12600.00000 0 21728004.394 11304151.661 7126147.484 10 0 59582 13500.00000 0 22423084.305 11492086.755 3970646.397 10 0 59582 14400.00000 0 22787096.725 11436284.642 738002.433 10 0 59582 15300.00000 0 22785500.610 11183354.394 -2508979.871 10 0 59582 16200.00000 0 22395871.285 10786640.742 -5707204.056 10 0 59582 17100.00000 0 21608966.146 10303753.980 -8794511.233 10 0 59582 18000.00000 0 20429253.521 9793929.492 -11710891.833 10 0 59582 18900.00000 0 18874881.553 9315329.236 -14399655.611 10 0 59582 19800.00000 0 16977087.554 8922399.926 -16808536.688 10 0 59582 20700.00000 0 14779071.915 8663400.223 -18890711.768 10 0 59582 21600.00000 0 12334383.104 8578201.942 -20605711.603 10 0 59582 22500.00000 0 9704880.742 8696458.653 -21920208.021 10 0 59582 23400.00000 0 6958361.455 9036219.346 -22808661.298 10 0 59582 24300.00000 0 4165946.065 9603046.046 -23253815.597 10 0 59582 25200.00000 0 1399336.522 10389672.929 -23247033.113 10 0 59582 26100.00000 0 -1271943.653 11376221.691 -22788460.662 10 0 59582 27000.00000 0 -3783211.153 12530964.521 -21887025.717 10 0 59582 27900.00000 0 -6077076.902 13811603.018 -20560261.983 10 0 59582 28800.00000 0 -8105590.828 15167009.677 -18833967.929 10 0 59582 29700.00000 0 -9831989.058 16539359.099 -16741704.774 10 0 59582 30600.00000 0 -11231971.724 17866559.614 -14324143.490 10 0 59582 31500.00000 0 -12294459.133 19084883.225 -11628273.392 10 0 59582 32400.00000 0 -13021795.984 20131683.300 -8706487.589 10 0 59582 33300.00000 0 -13429396.411 20948085.596 -5615563.000 10 0 59582 34200.00000 0 -13544846.081 21481539.138 -2415554.999 10 0 59582 35100.00000 0 -13406500.484 21688119.300 831371.667 10 0 59582 36000.00000 0 -13061639.690 21534485.812 4062152.615 10 0 59582 36900.00000 0 -12564258.506 20999412.900 7214050.268 10 0 59582 37800.00000 0 -11972586.262 20074826.871 10225872.852 10 0 59582 38700.00000 0 -11346441.661 18766307.129 13039162.037 10 0 59582 39600.00000 0 -10744534.894 17093029.277 15599325.956 10 0 59582 40500.00000 0 -10221831.192 15087152.267 17856695.752 10 0 59582 41400.00000 0 -9827087.129 12792674.828 19767485.449 10 0 59582 42300.00000 0 -9600663.482 10263808.476 21294636.907 10 0 59582 43200.00000 0 -9572706.626 7562934.367 22408534.125 10 0 59582 44100.00000 0 -9761774.876 4758228.316 23087573.644 10 0 59582 45000.00000 0 -10173967.458 1921052.050 23318580.575 10 0 59582 45900.00000 0 -10802592.779 -876781.920 23097062.656 10 0 59582 46800.00000 0 -11628390.213 -3565759.231 22427297.685 10 0 59582 47700.00000 0 -12620296.506 -6081313.262 21322252.644 10 0 59582 48600.00000 0 -13736725.273 -8366266.450 19803335.880 10 0 59582 49500.00000 0 -14927306.601 -10372962.901 17899986.683 10 0 59582 50400.00000 0 -16135014.468 -12065004.445 15649109.619 10 0 59582 51300.00000 0 -17298593.284 -13418518.716 13094363.910 10 0 59582 52200.00000 0 -18355182.124 -14422907.127 10285320.893 10 0 59582 53100.00000 0 -19243026.550 -15081042.090 7276505.418 10 0 59582 54000.00000 0 -19904163.918 -15408905.956 4126339.322 10 0 59582 54900.00000 0 -20286968.819 -15434687.420 896007.296 10 0 59582 55800.00000 0 -20348450.871 -15197374.004 -2351732.700 10 0 59582 56700.00000 0 -20056207.241 -14744900.593 -5553771.130 10 0 59582 57600.00000 0 -19389946.695 -14131932.705 -8647876.533 10 0 59582 58500.00000 0 -18342519.926 -13417378.758 -11573908.616 10 0 59582 59400.00000 0 -16920411.732 -12661737.028 -14274990.729 10 0 59582 60300.00000 0 -15143673.265 -11924389.976 -16698618.476 10 0 59582 61200.00000 0 -13045296.231 -11260960.737 -18797682.522 10 0 59582 62100.00000 0 -10670054.394 -10720843.849 -20531385.589 10 0 59582 63000.00000 0 -8072860.009 -10345014.719 -21866035.831 10 0 59582 63900.00000 0 -5316703.247 -10164210.476 -22775701.296 10 0 59582 64800.00000 0 -2470259.875 -10197559.011 -23242713.020 10 0 59582 65700.00000 0 394733.718 -10451714.057 -23258007.279 10 0 59582 66600.00000 0 3206229.414 -10920532.785 -22821300.560 10 0 59582 67500.00000 0 5894626.448 -11585309.569 -21941094.072 10 0 59582 68400.00000 0 8395426.589 -12415556.167 -20634507.744 10 0 59582 69300.00000 0 10651675.578 -13370295.601 -18926946.904 10 0 59582 70200.00000 0 12616089.997 -14399815.364 -16851608.002 10 0 59582 71100.00000 0 14252781.865 -15447806.278 -14448832.766 10 0 59582 72000.00000 0 15538509.875 -16453796.888 -11765323.219 10 0 59582 72900.00000 0 16463406.121 -17355780.845 -8853232.702 10 0 59582 73800.00000 0 17031149.075 -18092926.346 -5769150.525 10 0 59582 74700.00000 0 17258576.762 -18608253.180 -2573000.177 10 0 59582 75600.00000 0 17174757.656 -18851164.165 673127.263 10 0 59582 76500.00000 0 16819559.653 -18779723.834 3906181.548 10 0 59582 77400.00000 0 16241778.495 -18362587.888 7063379.546 10 0 59582 78300.00000 0 15496905.589 -17580501.647 10083425.239 10 0 59582 79200.00000 0 14644630.160 -16427303.947 12907699.508 10 0 59582 80100.00000 0 13746181.679 -14910393.776 15481396.373 10 0 59582 81000.00000 0 12861624.986 -13050639.517 17754583.779 10 0 59582 81900.00000 0 12047222.196 -10881733.981 19683168.612 10 0 59582 82800.00000 0 11352972.403 -8449021.564 21229747.624 10 0 59582 83700.00000 0 10820432.447 -5807845.752 22364328.385 10 0 59582 84600.00000 0 10480910.024 -3021484.921 23064906.929 10 0 59582 85500.00000 0 10354104.719 -158761.475 23317891.435 99